Aérodrome :
LOGIN :

S'inscrire | Disclaimer

   EN    FR    IT 

 










Légende :    VFR   VFR Marginal   IFR   IFR Intensif   IFR Très Intensif
Visi : 
Plafond : 
>= 8 km
>= 3000ft
5 à 8 km
1000 à 3000 ft
1500m à 5 km
500 à 1000 ft
800 à 1500m
200 à 500 ft
< 800m
< 200 ft
Symboles :   Orages  Brouillard  Fortes neiges  Fortes précipitations  Vent > 20 kt
SIGMETs :   Divers  Orages  Givrage  Turbulence  Onde Orograph.  Cendres Volcan.







- Altitude de l'aérodrome : 5600 ft
- Code IATA : SMV


LSZS - Samedan

DERNIER METAR :
  • 190850Z 20007KT 9999 SCT040 05/M01 Q1030 RMK G

METARs EXPIRÉS :
  • 190820Z 19007KT 9999 SCT022 SCT040 04/M01 Q1030 RMK F
  • 190750Z 21008KT 9999 SCT022 BKN040 04/M00 Q1030 RMK E
  • 190720Z VRB02KT 8000 SCT022 BKN040 04/00 Q1030 RMK D
  • 190650Z VRB02KT 8000 SCT022 BKN030 03/00 Q1030 RMK C
  • 190620Z VRB03KT 8000 BKN028 SCT060 03/00 Q1029 RMK B

TAF TAF LSZS
Valide du 19 à 09h jusqu'au 19 à 18h UTC


190825Z 1909/1918 18005KT 9999 SCT022 BKN040 TX10/1915Z
BECMG 1912/1915 CAVOK
ATIS : +41 81 834 93 24
Pas de NOTAMs connus pour ce terrain.



MET'MAP, la Météo Aéronautique d'un coup d'oeil ! - Copyright ORBIFLY Décembre 2007 - Disclaimer

ORBIFLY MET'MAP TEAM :

Programmation & Développement : Alexandra Zaïnal
Conception & Développement : Baudouin d'Aumeries
Co-Programmation & Développement : Marc-Olivier Méhu
Soutien technique & logistique : Manuel Goepfert

Contact : metmap@orbifly.com




SOURCES & CREDITS :

   NOAA